Regional Weather Roundup
Issued by NWS

Home | Current Version | Previous Version | Graphics & Text | Print | Product List | Glossary On
Versions: 1 2 3 4 5 6 7 8 9 10 11 12 13 14 15 16 17 18 19 20 21 22 23 24 25 26 27 28 29 30 31 32 33 34 35 36 37 38 39 40 41 42 43 44 45 46 47 48 49 50
000
ASUS43 KTOP 120508
RWRKS

WEATHER ROUNDUP FOR KANSAS
NATIONAL WEATHER SERVICE GOODLAND KS
1100 PM CST MON DEC 11 2017

NOTE:  "FAIR" INDICATES FEW OR NO CLOUDS BELOW 12,000 FEET WITH NO
SIGNIFICANT WEATHER AND/OR OBSTRUCTIONS TO VISIBILITY.

KSZ001>006-013>018-027>032-041>047-120600-
NORTHWEST KANSAS

CITY           SKY/WX    TMP DP  RH WIND       PRES   REMARKS
GOODLAND       CLOUDY    20  11  68 N10       30.42R WCI   9
HAYS           CLEAR     36  26  67 N13       30.40R WCI  27
HILL CITY      CLEAR     31  24  75 NW8       30.41S
RUSSELL        CLEAR     33  27  78 N9        30.38R
$$

KSZ061>065-074>080-084>089-120600-
SOUTHWEST KANSAS

CITY           SKY/WX    TMP DP  RH WIND       PRES   REMARKS
DODGE CITY     CLEAR     32  21  64 NW6       30.41R
ELKHART        CLOUDY    37  14  39 N10       30.45R WCI  30
GARDEN CITY    CLEAR     30  16  56 N10       30.42R WCI  21
GREAT BEND     CLEAR     33  25  72 NW7       30.40R
LIBERAL        CLOUDY    30  12  47 NW10      30.44R WCI  21
PRATT          CLEAR     34  25  68 N10       30.38R WCI  26
$$

KSZ066>073-081>083-090>101-120600-
SOUTHEAST KANSAS

CITY           SKY/WX    TMP DP  RH WIND       PRES   REMARKS
CHANUTE        CLEAR     42  31  64 N16G26    30.27R
COFFEYVILLE    CLEAR     45  31  58 N14       30.27R
HUTCHINSON     CLEAR     40  28  62 N18       30.35R WCI  31
MEDICINE LODGE   N/A     39  27  62 N9        30.37R
NEWTON         PTCLDY    39  28  64 N20G28    30.32R WCI  29
PARSONS        CLEAR     43  32  65 N15G23    30.28R
WICHITA INTL   CLEAR     41  29  62 N13       30.34R
WICHITA JABRA  CLEAR     39  29  67 N15G23    30.32R WCI  31
WICHITA MCCONL CLEAR     41  27  57 N14G24    30.32R
WINFIELD       CLEAR     42  29  59 N18       30.32R
$$

KSZ007>012-019>026-033>040-048>060-102>105-120600-
NORTHEAST KANSAS

CITY           SKY/WX    TMP DP  RH WIND       PRES   REMARKS
CONCORDIA      CLOUDY    40  26  57 N13       30.36R WCI  32
EMPORIA        CLEAR     40  27  59 N23G30    30.29R WCI  30
LAWRENCE       CLEAR     37  24  59 NW20G36   30.28R WCI  27
MANHATTAN      PTCLDY    41  29  62 N12G18    30.34R
MARYSVILLE     PTCLDY    34  27  75 N7        30.33R
OLATHE IND     CLEAR     36  26  67 NW17G29   30.25R WCI  26
OLATHE EXE     CLEAR     36  25  64 N18G31    30.23R WCI  26
SALINA         CLOUDY    44  30  57 N18G29    30.36R
TOPEKA BILLARD PTCLDY    38  27  64 NW22G33   30.30R WCI  27
TOPEKA FORBES  CLEAR     39  27  62 N21G32    30.29R WCI  29
$$



USA.gov is the U.S. government's official web portal to all federal, state and local government web resources and services.